Location: Riverside Cemetery
(38.3047°N, 99.7773°W)
Time: 03:29:31
(UTC+00:00)

MetOp-A - Pass Details

Date: 19 September 2020
Orbit: 820 x 821 km, 98.5° (Epoch: 22 October)

Event Time Altitude Azimuth Distance (km) Brightness Sun altitude
Exits shadow 02:49:17 48° 178° (S) 1,068 4.5 -25.2°
Maximum altitude 02:50:51 80° 257° (WSW) 837 4.1 -25.5°
Drops below altitude 10° 02:56:13 10° 345° (NNW) 2,424 7.1 -26.4°
Sets 02:58:35 0° 346° (NNW) 3,360 7.9 -26.8°
